Location: Beekant
(50.7833°N, 3.5333°E)
Time: 22:19:52
(UTC+00:00)

Daily predictions for brighter satellites

Satellite Brightness Start Highest point End
(mag) Time Altitude Azimuth Time Altitude Azimuth Time Altitude Azimuth
SL-08 R/B 4.2 17:43:04 10° N 17:47:55 59° WNW 17:52:47 10° SSW
Cosmos 1697 Rocket 3.0 17:42:36 10° SW 17:48:13 74° WNW 17:53:53 10° NNE
Okean 2 3.7 17:44:40 10° NNW 17:48:50 74° W 17:52:57 10° S
SL-14 R/B 3.3 17:49:00 10° N 17:52:58 65° ENE 17:56:57 10° SSE
MOS 1-B 4.4 17:49:23 10° SSE 17:55:07 64° ENE 18:00:53 10° NNW
Cosmos 1733 3.1 17:51:59 10° S 17:55:42 68° E 17:59:26 10° NNE
Cosmos 2360 Rocket 3.9 17:55:16 10° ESE 17:56:12 10° E 17:57:08 10° E
MINOTAUR 4 R/B 3.9 17:55:29 10° NNE 17:59:00 83° ESE 18:02:28 10° SSW
Cosmos 1809 Rocket 4.5 17:53:14 10° S 17:59:10 59° E 18:05:09 10° NNE
Cosmos 1766 3.8 17:58:30 10° SSE 18:02:06 36° E 18:05:46 10° NNE
Cosmos 1674 Rocket 3.5 17:57:47 10° N 18:02:12 68° ENE 18:06:37 10° SSE
Meteor 2-10 4.2 17:58:07 10° S 18:03:39 63° E 18:09:02 10° NNE
Cosmos 1025 Rocket 4.4 18:01:24 10° NNE 18:04:37 20° ENE 18:07:50 10° ESE
ATLAS 2AS CENTAUR R/B 4.2 17:59:41 10° WNW 18:06:14 31° N 18:12:29 10° NE
YAOGAN 1 2.7 18:02:59 10° SSE 18:07:12 55° ENE 18:11:27 10° N
Cosmos 968 Rocket 4.2 18:04:07 10° SSE 18:08:40 31° ESE 18:13:12 10° NE
Okean O Rocket 1.8 18:06:50 10° SE 18:11:04 51° ENE 18:15:20 10° N
Cosmos 2084 3.8 18:08:52 10° WSW 18:12:37 54° NW 18:16:23 10° NE
IRIDIUM 106 4.5 18:07:44 10° SSE 18:12:46 52° E 18:17:50 10° NNE
SKYMED 2 3.6 18:08:57 10° NNE 18:13:20 85° WNW 18:17:40 10° SSW
Lacrosse 4 Rocket 3.0 18:11:19 10° SE 18:13:23 14° ESE 18:13:56 13° E
Meteor 2-5 Rocket 4.0 18:09:07 10° N 18:14:25 43° ENE 18:19:40 10° SE
Nadezhda 4 Rocket 4.1 18:09:58 10° SSE 18:16:06 55° E 18:22:14 10° NNE
CSL-04 Rocket 4.5 18:13:52 10° ESE 18:18:31 31° ENE 18:23:15 10° N
Cosmos 2285 Rocket 4.0 18:14:29 10° NNW 18:20:53 80° ENE 18:27:16 10° SSE
PSLV R/B 4.3 18:19:45 10° S 18:23:22 57° WSW 18:27:00 10° NNW
USA 186 3.1 18:22:41 17° ESE 18:24:09 23° ENE 18:26:54 10° NNE
Cosmos 1726 2.0 18:20:34 10° S 18:24:12 82° E 18:27:53 10° NNE
Cosmos 2322 Rocket 3.1 18:19:51 10° SSE 18:24:30 27° ESE 18:29:12 10° NE
Cosmos 1378 Rocket 3.9 18:24:23 10° NNW 18:28:45 68° W 18:33:04 10° S
Cosmos 1470 3.5 18:25:34 10° SSE 18:28:57 30° E 18:32:21 10° NNE
CZ-4B R/B 3.3 18:24:12 10° SSE 18:29:36 84° WSW 18:35:10 10° NNW
Cosmos 1975 Rocket 3.7 18:25:50 10° N 18:29:53 34° ENE 18:33:08 14° SE
Cosmos 1980 Rocket 2.5 18:24:42 10° SW 18:30:19 69° WNW 18:35:57 10° NNE
ARGOS Delta rocket 3.9 18:25:17 10° NNE 18:30:36 80° E 18:35:37 10° S
Cosmos 2292 Rocket 3.6 18:34:15 10° S 18:39:05 51° E 18:42:48 10° NNE
Cosmos 1733 Rocket 4.4 18:39:02 10° SSW 18:43:17 44° WNW 18:47:35 10° N
USA 215 3.3 18:37:21 10° ENE 18:43:56 83° NNW 18:50:29 10° WSW
IRS-1C Rocket 4.5 18:43:42 18° SE 18:47:20 43° ENE 18:52:17 10° N
COBE Rocket 4.5 18:43:08 10° S 18:47:53 57° W 18:52:33 10° NNW
Cosmos 1844 Rocket 2.8 18:43:32 10° NNW 18:49:10 59° NE 18:52:58 21° SE
Cosmos 2278 3.8 18:48:00 10° SSW 18:53:42 79° WNW 18:59:25 10° NNE
Cosmos 1943 Rocket 4.4 18:53:20 10° N 18:54:22 10° NNE 18:55:25 10° NNE
Cosmos 1570 Rocket 4.3 18:49:12 10° NNW 18:54:27 71° WSW 18:59:38 10° SSE
SL-16 R/B 2.2 18:48:58 10° S 18:54:30 58° ESE 19:00:04 10° NE
Landsat 5 4.0 18:50:51 10° NNE 18:55:06 40° E 18:59:17 10° SSE
Cosmos 1092 Rocket 4.0 18:51:23 10° S 18:57:34 64° E 19:03:46 10° NNE
DMSP B5D1-3 4.4 18:55:22 10° NNE 19:00:31 87° ESE 19:05:39 10° SSW
Resurs 01 Rocket 2.8 19:01:19 25° ENE 19:01:25 25° ENE 19:05:00 10° N
SJ-6B 2.6 19:02:07 33° SE 19:03:35 62° ENE 19:07:22 10° N
Cosmos 2278 Rocket 3.8 18:59:52 10° NNW 19:03:55 19° NE 19:05:41 17° ENE
Cosmos 1437 Rocket 2.7 19:02:50 10° SSW 19:06:34 76° WNW 19:10:20 10° N
H-2A R/B 3.4 19:07:12 28° NE 19:07:12 28° NE 19:10:08 10° N
Gbstr 26 Del rocket 4.5 18:59:20 10° WSW 19:07:02 84° SSE 19:12:38 23° ENE
Cosmos 2263 Rocket 4.2 19:03:08 10° NW 19:07:56 29° WSW 19:12:44 10° SSW
Meteor 1-24 Rocket 3.6 19:04:30 10° NNW 19:09:50 84° W 19:15:13 10° S
Cosmos 1703 4.5 19:07:42 10° N 19:10:10 26° NE 19:10:10 26° NE
Resurs 1-3 3.7 19:11:26 39° SE 19:12:44 56° ENE 19:17:03 10° N
SL-4 R/B 3.9 19:11:35 10° W 19:15:21 26° SW 19:17:52 17° S
Cosmos 921 Rocket 4.3 19:12:00 10° N 19:15:35 26° NE 19:15:35 26° NE
MetOp-A 4.0 19:17:19 37° NE 19:17:19 37° NE 19:20:40 10° N
Cosmos 2084 Rocket 3.8 19:14:44 10° NW 19:18:29 52° SW 19:19:51 34° S
Okean-O 2.5 19:20:29 34° SSE 19:22:25 84° ENE 19:26:53 10° NNW
Cosmos 1844 3.6 19:18:07 10° NNW 19:23:43 86° ENE 19:26:12 35° SSE
CZ-4 R/B 3.0 19:20:00 10° SSW 19:23:51 36° W 19:27:45 10° NNW
Cosmos 1486 Rocket 4.1 19:18:50 10° S 19:23:58 52° ESE 19:29:09 10° NNE
OBJECT-B 1.7 19:24:56 36° WNW 19:24:56 36° WNW 19:26:51 10° NNW
IGS 5A 3.4 19:24:37 35° S 19:26:19 82° WSW 19:30:29 10° NNW
DNEPR-1 R/B 3.9 19:23:19 10° SSW 19:27:58 57° ESE 19:30:36 29° ENE
S3M 4.2 19:22:55 10° N 19:28:55 46° ENE 19:30:09 41° ESE
Meteor 1-22 Rocket 4.3 19:23:35 10° SSW 19:29:01 77° WNW 19:34:45 10° N
Cosmos 773 Rocket 4.2 19:25:00 10° NNW 19:30:12 52° ENE 19:31:00 47° E
Meteor 1-21 Rocket 4.5 19:25:44 10° N 19:31:03 44° ENE 19:31:34 43° E
Cosmos 1300 Rocket 3.4 19:30:15 48° SSE 19:31:22 73° E 19:35:45 10° NNE
CSL-04 Debris 4.4 19:28:02 15° S 19:32:38 70° WSW 19:38:02 10° NNW
USA 81 4.4 19:33:10 10° N 19:38:25 66° W 19:43:22 11° S
Cosmos 2360 Rocket 2.1 19:33:29 10° SSW 19:39:01 61° ESE 19:44:36 10° NE
Cosmos 1782 Rocket 4.1 19:35:32 10° SSW 19:39:48 56° WNW 19:44:09 10° N
Cosmos 1025 Rocket 3.8 19:38:19 10° NNW 19:42:31 51° W 19:44:51 24° SSW
Cosmos 158 Rocket 4.2 19:40:23 10° NNW 19:44:48 47° NE 19:44:48 47° NE
Okean O Rocket 4.1 19:44:23 10° SW 19:47:42 21° W 19:51:02 10° NW
Cosmos 1417 Rocket 4.3 19:43:18 10° N 19:49:27 74° E 19:51:03 51° SSE
Cosmos 968 Rocket 4.5 19:45:13 10° SW 19:50:16 47° WNW 19:55:21 10° NNE
Lacrosse 4 Rocket 1.9 19:47:14 10° SW 19:50:17 49° SW 19:50:17 49° SW
Cosmos 2026 Rocket 4.3 19:47:18 10° SSW 19:53:17 62° WNW 19:59:21 10° N
USA 186 3.8 19:55:51 26° WSW 19:56:21 27° W 19:59:18 10° NW
CSL-04 Rocket 4.4 19:55:05 20° SSW 19:58:40 49° W 20:03:56 10° NNW
ATLAS 2AS CENTAUR R/B 3.8 19:52:35 10° NW 19:59:13 35° NNE 20:01:35 28° NE
MOS 1 4.1 20:01:33 70° SE 20:02:11 81° ENE 20:07:53 10° NNW
Cosmos 1553 Rocket 4.2 19:56:53 10° NNW 20:03:14 71° W 20:06:34 30° S
Landsat 7 4.4 20:04:06 45° SW 20:05:06 54° W 20:09:46 10° NNW
deb Chang Zheng 4 4.0 20:05:56 56° NW 20:05:56 56° NW 20:09:27 10° NNW
Cosmos 1536 Rocket 4.2 20:01:31 10° N 20:04:43 48° N 20:04:43 48° N
SPOT 1/Viking Rocket 3.4 20:07:54 86° N 20:07:54 86° N 20:12:58 10° NNW
Cosmos 2322 Rocket 2.6 20:02:29 10° SW 20:08:09 63° WNW 20:13:50 10° NNE
NOSS 3-4 (A) 3.7 20:04:05 10° NW 20:10:50 73° NE 20:12:04 61° E
NOSS 3-4 (C) 3.7 20:04:11 10° NW 20:10:56 73° NE 20:12:10 61° E
SPOT 3 Rocket 4.5 20:15:04 37° NNE 20:15:04 37° NNE 20:18:36 10° N
Ariane Rocket 3.4 20:16:26 53° NNE 20:16:26 53° NNE 20:20:27 10° N
NOSS 3-3 (A) 4.3 20:16:08 10° SW 20:30:26 - NE 20:20:03 48° SSW
NOSS 3-3 (C) 4.4 20:16:14 10° SW 20:30:32 - NE 20:19:58 45° SSW
Aureole 1 Rocket 3.9 20:18:52 10° SSW 20:26:10 88° WNW 20:31:52 10° NNE
USA 215 3.8 20:24:15 36° NE 20:26:40 54° N 20:33:00 10° W
USA 281 3.6 20:27:40 47° NE 20:27:40 47° NE 20:33:44 10° NNW
Meteor 1-16 Rocket 4.3 20:30:32 76° NNW 20:30:32 76° NNW 20:36:03 10° NNE
Cosmos 1844 Rocket 4.3 20:27:57 10° NW 20:32:43 28° WSW 20:34:40 23° SW
Resurs 01 Rocket 3.0 20:38:52 36° NW 20:38:52 36° NW 20:41:58 10° NNW
Cosmos 2315 Rocket 4.0 20:32:08 10° N 20:37:56 74° N 20:37:56 74° N
SL-16 R/B 3.8 20:33:52 10° WSW 20:38:56 33° NW 20:44:03 10° NNE
Terra 3.8 20:42:42 22° N 20:42:42 22° N 20:44:31 10° N
Cosmos 1943 Rocket 3.7 20:35:34 10° NNW 20:38:59 24° NNE 20:38:59 24° NNE
Cosmos 2278 Rocket 2.9 20:43:25 10° NNW 20:47:32 47° N 20:47:32 47° N
Gbstr 26 Del rocket 4.4 20:46:46 10° W 20:54:49 84° N 20:55:06 82° NE
Cosmos 2369 Rocket 4.2 20:55:31 10° NNW 20:58:48 19° NNE 20:58:48 19° NNE
Cosmos 2333 Rocket 4.1 21:18:31 23° NNE 21:18:31 23° NNE 21:20:39 10° NNE
Cosmos 2360 Rocket 3.8 21:18:25 10° WSW 21:23:24 31° NW 21:28:25 10° NNE
ATLAS 2AS CENTAUR R/B 3.5 21:44:02 10° NW 21:49:00 46° NNW 21:49:00 46° NNW
USA 215 4.4 22:11:37 38° NW 22:11:37 38° NW 22:15:37 10° WNW
Cosmos 1943 Rocket 4.5 22:19:00 10° NNW 22:20:29 19° NW 22:20:29 19° NW
